Time,TemperatureF,DewpointF,PressureIn,WindDirection,WindDirectionDegrees,WindSpeedMPH,WindSpeedGustMPH,Humidity,HourlyPrecipIn,Conditions,Clouds,dailyrainin,SoftwareType,DateUTC
2013-08-02 00:00:00,50.7,47.9,29.96,WSW,249,0.0,3.0,90,0.00,,,0.00,Wunderground v.1.15,2013-08-02 07:00:00,
2013-08-02 00:05:00,50.6,48.7,29.96,WSW,249,0.0,3.0,93,0.00,,,0.00,Wunderground v.1.15,2013-08-02 07:05:00,
2013-08-02 00:15:00,50.6,48.7,29.96,WSW,249,0.0,0.0,93,0.00,,,0.00,Wunderground v.1.15,2013-08-02 07:15:00,
2013-08-02 00:20:00,50.5,48.6,29.96,WSW,249,0.0,0.0,93,0.00,,,0.00,Wunderground v.1.15,2013-08-02 07:20:00,
2013-08-02 00:25:00,50.5,48.8,29.96,WSW,249,0.0,0.0,94,0.00,,,0.00,Wunderground v.1.15,2013-08-02 07:25:00,
2013-08-02 00:30:00,50.4,48.7,29.96,WSW,249,0.0,0.0,94,0.00,,,0.00,Wunderground v.1.15,2013-08-02 07:30:00,
2013-08-02 00:40:00,50.6,49.2,29.95,WSW,249,0.0,0.0,95,0.00,,,0.00,Wunderground v.1.15,2013-08-02 07:40:00,
2013-08-02 00:45:00,50.9,49.5,29.95,WSW,249,0.0,0.0,95,0.00,,,0.00,Wunderground v.1.15,2013-08-02 07:45:00,
2013-08-02 00:50:00,50.8,48.8,29.96,WSW,249,0.0,0.0,93,0.00,,,0.00,Wunderground v.1.15,2013-08-02 07:50:00,
2013-08-02 00:55:00,49.8,47.3,29.95,WSW,249,0.0,0.0,91,0.00,,,0.00,Wunderground v.1.15,2013-08-02 07:55:00,
2013-08-02 01:00:00,49.5,47.6,29.95,WSW,249,0.0,0.0,93,0.00,,,0.00,Wunderground v.1.15,2013-08-02 08:00:00,
2013-08-02 01:05:00,49.8,48.4,29.95,WSW,249,0.0,0.0,95,0.00,,,0.00,Wunderground v.1.15,2013-08-02 08:05:00,
2013-08-02 01:15:00,49.2,47.0,29.95,WSW,249,0.0,0.0,92,0.00,,,0.00,Wunderground v.1.15,2013-08-02 08:15:00,
2013-08-02 01:20:00,49.2,47.8,29.95,WSW,249,0.0,0.0,95,0.00,,,0.00,Wunderground v.1.15,2013-08-02 08:20:00,
2013-08-02 01:25:00,49.4,48.0,29.95,WSW,249,0.0,0.0,95,0.00,,,0.00,Wunderground v.1.15,2013-08-02 08:25:00,
2013-08-02 01:30:00,49.7,48.6,29.95,WSW,249,0.0,0.0,96,0.00,,,0.00,Wunderground v.1.15,2013-08-02 08:30:00,
2013-08-02 01:40:00,48.8,47.2,29.95,WSW,249,0.0,0.0,94,0.00,,,0.00,Wunderground v.1.15,2013-08-02 08:40:00,
2013-08-02 01:49:00,49.7,48.6,29.94,WSW,249,0.0,0.0,96,0.00,,,0.00,Wunderground v.1.15,2013-08-02 08:49:00,
2013-08-02 01:55:00,49.6,48.2,29.94,WSW,249,0.0,0.0,95,0.00,,,0.00,Wunderground v.1.15,2013-08-02 08:55:00,
2013-08-02 02:00:00,48.8,46.9,29.94,WSW,249,0.0,0.0,93,0.00,,,0.00,Wunderground v.1.15,2013-08-02 09:00:00,
2013-08-02 02:05:00,48.2,46.3,29.94,WSW,249,0.0,0.0,93,0.00,,,0.00,Wunderground v.1.15,2013-08-02 09:05:00,
2013-08-02 02:10:00,48.0,46.6,29.94,WSW,249,0.0,0.0,95,0.00,,,0.00,Wunderground v.1.15,2013-08-02 09:10:00,
2013-08-02 02:15:00,47.9,46.5,29.94,WSW,249,0.0,0.0,95,0.00,,,0.00,Wunderground v.1.15,2013-08-02 09:15:00,
2013-08-02 02:20:00,47.9,46.5,29.94,WSW,249,0.0,0.0,95,0.00,,,0.00,Wunderground v.1.15,2013-08-02 09:20:00,
2013-08-02 02:30:00,47.2,45.6,29.94,WSW,249,0.0,0.0,94,0.00,,,0.00,Wunderground v.1.15,2013-08-02 09:30:00,
2013-08-02 02:35:00,47.0,45.6,29.94,WSW,249,0.0,0.0,95,0.00,,,0.00,Wunderground v.1.15,2013-08-02 09:35:00,
2013-08-02 02:40:00,47.4,46.3,29.94,WSW,249,0.0,0.0,96,0.00,,,0.00,Wunderground v.1.15,2013-08-02 09:40:00,
2013-08-02 02:45:00,47.8,47.0,29.94,WSW,249,0.0,0.0,97,0.00,,,0.00,Wunderground v.1.15,2013-08-02 09:45:00,
2013-08-02 02:50:00,47.0,45.4,29.93,WSW,249,0.0,0.0,94,0.00,,,0.00,Wunderground v.1.15,2013-08-02 09:50:00,
2013-08-02 02:55:00,46.5,45.1,29.93,WSW,249,0.0,0.0,95,0.00,,,0.00,Wunderground v.1.15,2013-08-02 09:55:00,
2013-08-02 03:00:00,46.9,45.8,29.94,WSW,249,0.0,0.0,96,0.00,,,0.00,Wunderground v.1.15,2013-08-02 10:00:00,
2013-08-02 03:10:00,46.6,45.5,29.94,WSW,249,0.0,0.0,96,0.00,,,0.00,Wunderground v.1.15,2013-08-02 10:10:00,
2013-08-02 03:15:00,46.8,45.7,29.93,WSW,249,0.0,0.0,96,0.00,,,0.00,Wunderground v.1.15,2013-08-02 10:15:00,
2013-08-02 03:20:00,46.7,45.6,29.94,WSW,249,0.0,0.0,96,0.00,,,0.00,Wunderground v.1.15,2013-08-02 10:20:00,
2013-08-02 03:25:00,47.1,46.3,29.94,WSW,249,0.0,0.0,97,0.00,,,0.00,Wunderground v.1.15,2013-08-02 10:25:00,
2013-08-02 03:30:00,47.0,45.9,29.93,WSW,249,0.0,0.0,96,0.00,,,0.00,Wunderground v.1.15,2013-08-02 10:30:00,
2013-08-02 03:35:00,46.9,45.8,29.93,WSW,249,0.0,0.0,96,0.00,,,0.00,Wunderground v.1.15,2013-08-02 10:35:00,
2013-08-02 03:45:00,47.6,46.8,29.93,WSW,249,0.0,0.0,97,0.00,,,0.00,Wunderground v.1.15,2013-08-02 10:45:00,
2013-08-02 03:50:00,47.2,46.1,29.93,WSW,249,0.0,0.0,96,0.00,,,0.00,Wunderground v.1.15,2013-08-02 10:50:00,
2013-08-02 03:55:00,46.6,45.2,29.93,WSW,249,0.0,0.0,95,0.00,,,0.00,Wunderground v.1.15,2013-08-02 10:55:00,
2013-08-02 04:00:00,46.3,44.9,29.93,WSW,249,0.0,0.0,95,0.00,,,0.00,Wunderground v.1.15,2013-08-02 11:00:00,
2013-08-02 04:05:00,46.2,45.1,29.93,WSW,249,0.0,0.0,96,0.00,,,0.00,Wunderground v.1.15,2013-08-02 11:05:00,
2013-08-02 04:10:00,46.3,45.2,29.93,WSW,249,0.0,0.0,96,0.00,,,0.00,Wunderground v.1.15,2013-08-02 11:10:00,
2013-08-02 04:15:00,46.5,45.7,29.93,WSW,249,0.0,0.0,97,0.00,,,0.00,Wunderground v.1.15,2013-08-02 11:15:00,
2013-08-02 04:25:00,46.1,45.0,29.93,WSW,249,0.0,0.0,96,0.00,,,0.00,Wunderground v.1.15,2013-08-02 11:25:00,
2013-08-02 04:30:00,45.9,44.8,29.93,WSW,249,0.0,0.0,96,0.00,,,0.00,Wunderground v.1.15,2013-08-02 11:30:00,
2013-08-02 04:35:00,45.6,44.5,29.93,WSW,249,0.0,0.0,96,0.00,,,0.00,Wunderground v.1.15,2013-08-02 11:35:00,
2013-08-02 04:40:00,46.0,45.2,29.93,WSW,249,0.0,0.0,97,0.00,,,0.00,Wunderground v.1.15,2013-08-02 11:40:00,
2013-08-02 04:45:00,46.3,45.5,29.93,WSW,249,0.0,0.0,97,0.00,,,0.00,Wunderground v.1.15,2013-08-02 11:45:00,
2013-08-02 04:50:00,46.1,45.3,29.93,WSW,249,0.0,0.0,97,0.00,,,0.00,Wunderground v.1.15,2013-08-02 11:50:00,
2013-08-02 05:00:00,46.4,45.6,29.93,WSW,249,0.0,0.0,97,0.00,,,0.00,Wunderground v.1.15,2013-08-02 12:00:00,
2013-08-02 05:05:00,46.6,46.1,29.93,WSW,249,0.0,0.0,98,0.00,,,0.00,Wunderground v.1.15,2013-08-02 12:05:00,
2013-08-02 05:10:00,47.1,46.6,29.93,WSW,249,0.0,0.0,98,0.00,,,0.00,Wunderground v.1.15,2013-08-02 12:10:00,
2013-08-02 05:15:00,47.7,47.2,29.93,WSW,249,0.0,0.0,98,0.00,,,0.00,Wunderground v.1.15,2013-08-02 12:15:00,
2013-08-02 05:20:00,48.0,47.5,29.94,WSW,249,0.0,0.0,98,0.00,,,0.00,Wunderground v.1.15,2013-08-02 12:20:00,
2013-08-02 05:25:00,48.6,48.1,29.93,WSW,249,0.0,0.0,98,0.00,,,0.00,Wunderground v.1.15,2013-08-02 12:25:00,
2013-08-02 05:30:00,49.0,48.5,29.93,WSW,249,0.0,1.0,98,0.00,,,0.00,Wunderground v.1.15,2013-08-02 12:30:00,
2013-08-02 05:40:00,48.8,48.3,29.93,WSW,249,0.0,0.0,98,0.00,,,0.00,Wunderground v.1.15,2013-08-02 12:40:00,
2013-08-02 05:45:00,48.9,48.4,29.93,WSW,249,0.0,0.0,98,0.00,,,0.00,Wunderground v.1.15,2013-08-02 12:45:00,
2013-08-02 05:50:00,49.0,48.5,29.93,SW,221,0.0,0.0,98,0.00,,,0.00,Wunderground v.1.15,2013-08-02 12:50:00,
2013-08-02 05:55:00,49.1,48.6,29.94,West,259,0.0,0.0,98,0.00,,,0.00,Wunderground v.1.15,2013-08-02 12:55:00,
2013-08-02 06:00:00,49.0,48.5,29.94,West,271,0.0,0.0,98,0.00,,,0.00,Wunderground v.1.15,2013-08-02 13:00:00,
2013-08-02 06:05:00,48.6,48.1,29.94,West,271,0.0,0.0,98,0.00,,,0.00,Wunderground v.1.15,2013-08-02 13:05:00,
2013-08-02 06:15:00,47.9,47.1,29.95,West,271,0.0,0.0,97,0.00,,,0.00,Wunderground v.1.15,2013-08-02 13:15:00,
2013-08-02 06:25:00,48.2,47.7,29.95,West,272,0.0,0.0,98,0.00,,,0.00,Wunderground v.1.15,2013-08-02 13:25:00,
2013-08-02 06:30:00,48.4,47.9,29.95,WNW,283,0.0,0.0,98,0.00,,,0.00,Wunderground v.1.15,2013-08-02 13:30:00,
2013-08-02 06:35:00,48.5,48.0,29.95,WNW,283,0.0,0.0,98,0.00,,,0.00,Wunderground v.1.15,2013-08-02 13:35:00,
2013-08-02 06:40:00,48.8,48.3,29.95,West,273,0.0,0.0,98,0.00,,,0.00,Wunderground v.1.15,2013-08-02 13:40:00,
2013-08-02 06:49:00,49.1,48.6,29.96,West,273,0.0,0.0,98,0.00,,,0.00,Wunderground v.1.15,2013-08-02 13:49:00,
2013-08-02 06:55:00,49.2,48.7,29.96,West,273,0.0,0.0,98,0.00,,,0.00,Wunderground v.1.15,2013-08-02 13:55:00,
2013-08-02 07:00:00,49.4,48.9,29.96,West,273,0.0,0.0,98,0.00,,,0.00,Wunderground v.1.15,2013-08-02 14:00:00,
2013-08-02 07:05:00,49.5,49.2,29.96,WNW,301,0.0,0.0,99,0.00,,,0.00,Wunderground v.1.15,2013-08-02 14:05:00,
2013-08-02 07:10:00,49.6,49.3,29.96,WNW,301,0.0,0.0,99,0.00,,,0.00,Wunderground v.1.15,2013-08-02 14:10:00,
2013-08-02 07:15:00,49.7,49.4,29.96,WNW,301,0.0,0.0,99,0.00,,,0.00,Wunderground v.1.15,2013-08-02 14:15:00,
2013-08-02 07:25:00,49.9,49.4,29.97,WNW,301,0.0,0.0,98,0.00,,,0.00,Wunderground v.1.15,2013-08-02 14:25:00,
2013-08-02 07:30:00,50.0,49.5,29.97,WNW,301,0.0,0.0,98,0.00,,,0.00,Wunderground v.1.15,2013-08-02 14:30:00,
2013-08-02 07:35:00,50.1,49.8,29.97,WNW,301,0.0,1.0,99,0.00,,,0.00,Wunderground v.1.15,2013-08-02 14:35:00,
2013-08-02 07:40:00,50.2,49.9,29.97,West,276,0.0,0.0,99,0.00,,,0.00,Wunderground v.1.15,2013-08-02 14:40:00,
2013-08-02 07:45:00,50.4,50.1,29.97,WNW,294,0.0,0.0,99,0.00,,,0.00,Wunderground v.1.15,2013-08-02 14:45:00,
2013-08-02 07:54:00,50.7,50.2,29.97,WNW,294,0.0,0.0,98,0.00,,,0.00,Wunderground v.1.15,2013-08-02 14:54:00,
2013-08-02 07:59:00,50.8,50.5,29.98,WNW,284,0.0,0.0,99,0.00,,,0.00,Wunderground v.1.15,2013-08-02 14:59:00,
2013-08-02 08:05:00,51.1,50.8,29.98,WNW,284,0.0,0.0,99,0.00,,,0.00,Wunderground v.1.15,2013-08-02 15:05:00,
2013-08-02 08:10:00,51.3,51.0,29.98,WNW,284,0.0,2.0,99,0.00,,,0.00,Wunderground v.1.15,2013-08-02 15:10:00,
2013-08-02 08:15:00,51.5,51.2,29.98,West,278,1.0,2.0,99,0.00,,,0.00,Wunderground v.1.15,2013-08-02 15:15:00,
2013-08-02 08:25:00,51.5,51.2,29.98,WSW,245,1.0,2.0,99,0.00,,,0.00,Wunderground v.1.15,2013-08-02 15:25:00,
2013-08-02 08:30:00,51.6,51.3,29.98,WSW,244,0.0,0.0,99,0.00,,,0.00,Wunderground v.1.15,2013-08-02 15:30:00,
2013-08-02 08:40:00,52.0,51.7,29.98,WSW,247,1.0,1.0,99,0.00,,,0.00,Wunderground v.1.15,2013-08-02 15:40:00,
2013-08-02 08:45:00,52.0,51.7,29.98,WNW,301,1.0,1.0,99,0.00,,,0.00,Wunderground v.1.15,2013-08-02 15:45:00,
2013-08-02 08:50:00,52.2,51.9,29.98,WNW,301,1.0,1.0,99,0.00,,,0.00,Wunderground v.1.15,2013-08-02 15:50:00,
2013-08-02 09:00:00,52.5,52.2,29.98,WNW,292,1.0,1.0,99,0.00,,,0.00,Wunderground v.1.15,2013-08-02 16:00:00,
2013-08-02 09:05:00,52.9,52.6,29.98,WNW,290,1.0,1.0,99,0.00,,,0.00,Wunderground v.1.15,2013-08-02 16:05:00,
2013-08-02 09:10:00,53.2,52.9,29.98,West,265,2.0,3.0,99,0.00,,,0.00,Wunderground v.1.15,2013-08-02 16:10:00,
2013-08-02 09:15:00,53.3,53.0,29.98,West,265,2.0,3.0,99,0.00,,,0.00,Wunderground v.1.15,2013-08-02 16:15:00,
2013-08-02 09:20:00,54.0,53.7,29.98,West,264,1.0,1.0,99,0.00,,,0.00,Wunderground v.1.15,2013-08-02 16:20:00,
2013-08-02 09:30:00,55.0,53.9,29.98,West,278,1.0,1.0,96,0.00,,,0.00,Wunderground v.1.15,2013-08-02 16:30:00,
2013-08-02 09:35:00,55.8,54.4,29.97,West,270,0.0,1.0,95,0.00,,,0.00,Wunderground v.1.15,2013-08-02 16:35:00,
2013-08-02 09:40:00,56.8,54.5,29.97,West,267,0.0,0.0,92,0.00,,,0.00,Wunderground v.1.15,2013-08-02 16:40:00,
2013-08-02 09:45:00,57.6,54.7,29.97,West,264,0.0,0.0,90,0.00,,,0.00,Wunderground v.1.15,2013-08-02 16:45:00,
2013-08-02 09:55:00,59.5,54.7,29.97,WSW,243,1.0,4.0,84,0.00,,,0.00,Wunderground v.1.15,2013-08-02 16:55:00,
2013-08-02 10:00:00,60.2,54.7,29.97,WSW,242,1.0,1.0,82,0.00,,,0.00,Wunderground v.1.15,2013-08-02 17:00:00,
2013-08-02 10:05:00,61.2,55.3,29.97,WSW,242,0.0,1.0,81,0.00,,,0.00,Wunderground v.1.15,2013-08-02 17:05:00,
2013-08-02 10:10:00,62.5,55.5,29.96,WSW,242,0.0,0.0,78,0.00,,,0.00,Wunderground v.1.15,2013-08-02 17:10:00,
2013-08-02 10:15:00,63.7,56.0,29.96,WSW,242,0.0,0.0,76,0.00,,,0.00,Wunderground v.1.15,2013-08-02 17:15:00,
2013-08-02 10:20:00,64.8,56.3,29.96,WSW,240,1.0,1.0,74,0.00,,,0.00,Wunderground v.1.15,2013-08-02 17:20:00,
2013-08-02 10:30:00,66.8,55.9,29.96,WSW,240,0.0,2.0,68,0.00,,,0.00,Wunderground v.1.15,2013-08-02 17:30:00,
2013-08-02 10:35:00,67.5,55.7,29.96,WSW,239,1.0,2.0,66,0.00,,,0.00,Wunderground v.1.15,2013-08-02 17:35:00,
2013-08-02 10:40:00,67.7,55.1,29.96,SW,229,2.0,2.0,64,0.00,,,0.00,Wunderground v.1.15,2013-08-02 17:40:00,
2013-08-02 10:45:00,68.3,55.2,29.95,SW,229,1.0,2.0,63,0.00,,,0.00,Wunderground v.1.15,2013-08-02 17:45:00,
2013-08-02 10:55:00,69.1,55.5,29.95,SW,229,2.0,2.0,62,0.00,,,0.00,Wunderground v.1.15,2013-08-02 17:55:00,
2013-08-02 11:00:00,69.9,55.8,29.95,SSW,205,2.0,2.0,61,0.00,,,0.00,Wunderground v.1.15,2013-08-02 18:00:00,
2013-08-02 11:05:00,70.3,55.8,29.95,SSW,209,3.0,3.0,60,0.00,,,0.00,Wunderground v.1.15,2013-08-02 18:05:00,
2013-08-02 11:10:00,71.3,55.8,29.95,SSW,213,2.0,4.0,58,0.00,,,0.00,Wunderground v.1.15,2013-08-02 18:10:00,
2013-08-02 11:15:00,71.2,56.1,29.95,SW,215,3.0,4.0,59,0.00,,,0.00,Wunderground v.1.15,2013-08-02 18:15:00,
2013-08-02 11:25:00,71.8,57.2,29.95,SSW,208,6.0,9.0,60,0.00,,,0.00,Wunderground v.1.15,2013-08-02 18:25:00,
2013-08-02 11:30:00,71.3,57.2,29.95,WSW,245,7.0,7.0,61,0.00,,,0.00,Wunderground v.1.15,2013-08-02 18:30:00,
2013-08-02 11:35:00,70.8,56.7,29.95,West,261,8.0,9.0,61,0.00,,,0.00,Wunderground v.1.15,2013-08-02 18:35:00,
2013-08-02 11:40:00,71.2,56.6,29.95,SSW,203,8.0,9.0,60,0.00,,,0.00,Wunderground v.1.15,2013-08-02 18:40:00,
2013-08-02 11:45:00,70.5,55.9,29.95,SSW,209,8.0,9.0,60,0.00,,,0.00,Wunderground v.1.15,2013-08-02 18:45:00,
2013-08-02 11:55:00,71.1,56.0,29.96,West,261,7.0,9.0,59,0.00,,,0.00,Wunderground v.1.15,2013-08-02 18:55:00,
2013-08-02 12:00:00,71.2,55.7,29.95,SSW,204,7.0,7.0,58,0.00,,,0.00,Wunderground v.1.15,2013-08-02 19:00:00,
2013-08-02 12:05:00,71.0,55.0,29.95,SW,224,7.0,7.0,57,0.00,,,0.00,Wunderground v.1.15,2013-08-02 19:05:00,
2013-08-02 12:10:00,70.9,55.4,29.95,SW,217,7.0,7.0,58,0.00,,,0.00,Wunderground v.1.15,2013-08-02 19:10:00,
2013-08-02 12:15:00,71.6,55.6,29.95,SSW,204,6.0,7.0,57,0.00,,,0.00,Wunderground v.1.15,2013-08-02 19:15:00,
2013-08-02 12:20:00,71.9,55.3,29.95,South,178,6.0,6.0,56,0.00,,,0.00,Wunderground v.1.15,2013-08-02 19:20:00,
2013-08-02 12:30:00,72.7,55.1,29.95,SSW,207,6.0,9.0,54,0.00,,,0.00,Wunderground v.1.15,2013-08-02 19:30:00,
2013-08-02 12:35:00,72.3,54.2,29.95,South,179,6.0,9.0,53,0.00,,,0.00,Wunderground v.1.15,2013-08-02 19:35:00,
2013-08-02 12:40:00,71.9,53.8,29.95,SSW,194,7.0,9.0,53,0.00,,,0.00,Wunderground v.1.15,2013-08-02 19:40:00,
2013-08-02 12:45:00,71.7,53.7,29.95,South,182,8.0,12.0,53,0.00,,,0.00,Wunderground v.1.15,2013-08-02 19:45:00,
2013-08-02 12:55:00,71.7,52.6,29.94,SSE,168,8.0,10.0,51,0.00,,,0.00,Wunderground v.1.15,2013-08-02 19:55:00,
2013-08-02 13:00:00,71.6,53.0,29.94,South,186,7.0,7.0,52,0.00,,,0.00,Wunderground v.1.15,2013-08-02 20:00:00,
2013-08-02 13:05:00,72.1,53.5,29.94,SSW,202,7.0,9.0,52,0.00,,,0.00,Wunderground v.1.15,2013-08-02 20:05:00,
2013-08-02 13:10:00,71.9,52.8,29.94,SSE,149,7.0,10.0,51,0.00,,,0.00,Wunderground v.1.15,2013-08-02 20:10:00,
2013-08-02 13:19:00,70.6,53.1,29.94,SSE,162,9.0,9.0,54,0.00,,,0.00,Wunderground v.1.15,2013-08-02 20:19:00,
2013-08-02 13:25:00,70.4,52.4,29.94,South,174,9.0,9.0,53,0.00,,,0.00,Wunderground v.1.15,2013-08-02 20:25:00,
2013-08-02 13:30:00,70.3,52.4,29.94,SSE,163,9.0,11.0,53,0.00,,,0.00,Wunderground v.1.15,2013-08-02 20:30:00,
2013-08-02 13:35:00,70.4,51.9,29.94,SSE,157,9.0,11.0,52,0.00,,,0.00,Wunderground v.1.15,2013-08-02 20:35:00,
2013-08-02 13:40:00,70.8,52.3,29.94,SSE,165,8.0,8.0,52,0.00,,,0.00,Wunderground v.1.15,2013-08-02 20:40:00,
2013-08-02 13:45:00,71.1,52.6,29.94,South,187,8.0,8.0,52,0.00,,,0.00,Wunderground v.1.15,2013-08-02 20:45:00,
2013-08-02 13:54:00,71.6,52.5,29.94,SSW,196,8.0,9.0,51,0.00,,,0.00,Wunderground v.1.15,2013-08-02 20:54:00,
2013-08-02 14:00:00,71.8,53.7,29.94,SSW,196,8.0,9.0,53,0.00,,,0.00,Wunderground v.1.15,2013-08-02 21:00:00,
2013-08-02 14:05:00,72.2,53.1,29.93,SSW,194,8.0,9.0,51,0.00,,,0.00,Wunderground v.1.15,2013-08-02 21:05:00,
2013-08-02 14:10:00,72.2,54.1,29.93,SW,219,8.0,12.0,53,0.00,,,0.00,Wunderground v.1.15,2013-08-02 21:10:00,
2013-08-02 14:15:00,72.9,54.2,29.93,SSW,197,7.0,12.0,52,0.00,,,0.00,Wunderground v.1.15,2013-08-02 21:15:00,
2013-08-02 14:25:00,72.0,52.9,29.93,South,180,9.0,10.0,51,0.00,,,0.00,Wunderground v.1.15,2013-08-02 21:25:00,
2013-08-02 14:30:00,72.1,53.5,29.93,SSE,167,9.0,9.0,52,0.00,,,0.00,Wunderground v.1.15,2013-08-02 21:30:00,
2013-08-02 14:35:00,72.3,52.6,29.93,SSW,200,8.0,10.0,50,0.00,,,0.00,Wunderground v.1.15,2013-08-02 21:35:00,
2013-08-02 14:40:00,72.3,54.2,29.93,SSE,161,7.0,8.0,53,0.00,,,0.00,Wunderground v.1.15,2013-08-02 21:40:00,
2013-08-02 14:45:00,72.2,54.6,29.93,SE,144,7.0,8.0,54,0.00,,,0.00,Wunderground v.1.15,2013-08-02 21:45:00,
2013-08-02 14:55:00,72.4,54.8,29.93,SE,139,7.0,8.0,54,0.00,,,0.00,Wunderground v.1.15,2013-08-02 21:55:00,
2013-08-02 15:00:00,71.4,55.4,29.93,South,174,8.0,10.0,57,0.00,,,0.00,Wunderground v.1.15,2013-08-02 22:00:00,
2013-08-02 15:05:00,70.6,54.6,29.93,South,185,8.0,10.0,57,0.00,,,0.00,Wunderground v.1.15,2013-08-02 22:05:00,
2013-08-02 15:10:00,70.5,55.5,29.93,SSE,157,8.0,8.0,59,0.00,,,0.00,Wunderground v.1.15,2013-08-02 22:10:00,
2013-08-02 15:15:00,70.1,54.6,29.92,South,173,8.0,8.0,58,0.00,,,0.00,Wunderground v.1.15,2013-08-02 22:15:00,
2013-08-02 15:25:00,69.9,54.9,29.92,SSE,152,7.0,8.0,59,0.00,,,0.00,Wunderground v.1.15,2013-08-02 22:25:00,
2013-08-02 15:30:00,69.7,55.6,29.92,SSE,149,7.0,10.0,61,0.00,,,0.00,Wunderground v.1.15,2013-08-02 22:30:00,
2013-08-02 15:35:00,70.2,55.7,29.92,SE,129,6.0,10.0,60,0.00,,,0.00,Wunderground v.1.15,2013-08-02 22:35:00,
2013-08-02 15:40:00,70.6,55.6,29.92,South,185,6.0,7.0,59,0.00,,,0.00,Wunderground v.1.15,2013-08-02 22:40:00,
2013-08-02 15:45:00,70.3,55.3,29.91,South,171,7.0,8.0,59,0.00,,,0.00,Wunderground v.1.15,2013-08-02 22:45:00,
2013-08-02 15:55:00,69.3,54.8,29.91,SSE,164,8.0,9.0,60,0.00,,,0.00,Wunderground v.1.15,2013-08-02 22:55:00,
2013-08-02 16:00:00,69.1,55.1,29.91,South,180,8.0,10.0,61,0.00,,,0.00,Wunderground v.1.15,2013-08-02 23:00:00,
2013-08-02 16:05:00,68.6,54.6,29.91,South,178,7.0,10.0,61,0.00,,,0.00,Wunderground v.1.15,2013-08-02 23:05:00,
2013-08-02 16:10:00,69.0,55.0,29.91,South,172,7.0,7.0,61,0.00,,,0.00,Wunderground v.1.15,2013-08-02 23:10:00,
2013-08-02 16:15:00,69.0,54.5,29.90,South,175,7.0,8.0,60,0.00,,,0.00,Wunderground v.1.15,2013-08-02 23:15:00,
2013-08-02 16:25:00,68.1,54.6,29.91,South,169,8.0,10.0,62,0.00,,,0.00,Wunderground v.1.15,2013-08-02 23:25:00,
2013-08-02 16:30:00,68.1,55.0,29.91,South,178,8.0,8.0,63,0.00,,,0.00,Wunderground v.1.15,2013-08-02 23:30:00,
2013-08-02 16:35:00,68.6,54.6,29.91,South,169,7.0,8.0,61,0.00,,,0.00,Wunderground v.1.15,2013-08-02 23:35:00,
2013-08-02 16:45:00,68.5,55.0,29.90,South,178,6.0,9.0,62,0.00,,,0.00,Wunderground v.1.15,2013-08-02 23:45:00,
2013-08-02 16:49:00,68.4,54.9,29.90,South,185,5.0,6.0,62,0.00,,,0.00,Wunderground v.1.15,2013-08-02 23:49:00,
2013-08-02 16:55:00,67.9,54.4,29.90,South,178,6.0,6.0,62,0.00,,,0.00,Wunderground v.1.15,2013-08-02 23:55:00,
2013-08-02 17:00:00,66.7,54.1,29.90,SE,145,7.0,7.0,64,0.00,,,0.00,Wunderground v.1.15,2013-08-03 00:00:00,
2013-08-02 17:05:00,66.9,54.7,29.90,SSE,157,7.0,7.0,65,0.00,,,0.00,Wunderground v.1.15,2013-08-03 00:05:00,
2013-08-02 17:15:00,66.6,54.5,29.89,SSE,160,6.0,7.0,65,0.00,,,0.00,Wunderground v.1.15,2013-08-03 00:15:00,
2013-08-02 17:20:00,66.7,54.6,29.89,South,173,5.0,6.0,65,0.00,,,0.00,Wunderground v.1.15,2013-08-03 00:20:00,
2013-08-02 17:25:00,66.6,54.5,29.90,South,181,5.0,6.0,65,0.00,,,0.00,Wunderground v.1.15,2013-08-03 00:25:00,
2013-08-02 17:30:00,65.8,54.1,29.90,South,174,6.0,6.0,66,0.00,,,0.00,Wunderground v.1.15,2013-08-03 00:30:00,
2013-08-02 17:35:00,65.9,54.6,29.89,SSE,163,5.0,6.0,67,0.00,,,0.00,Wunderground v.1.15,2013-08-03 00:35:00,
2013-08-02 17:45:00,65.6,53.9,29.89,SSE,148,5.0,5.0,66,0.00,,,0.00,Wunderground v.1.15,2013-08-03 00:45:00,
2013-08-02 17:50:00,65.2,54.0,29.89,South,169,6.0,6.0,67,0.00,,,0.00,Wunderground v.1.15,2013-08-03 00:50:00,
2013-08-02 17:55:00,65.1,53.9,29.89,South,169,6.0,6.0,67,0.00,,,0.00,Wunderground v.1.15,2013-08-03 00:55:00,
2013-08-02 18:00:00,65.1,53.9,29.89,SSE,151,5.0,5.0,67,0.00,,,0.00,Wunderground v.1.15,2013-08-03 01:00:00,
2013-08-02 18:05:00,65.0,53.8,29.89,SSE,149,5.0,5.0,67,0.00,,,0.00,Wunderground v.1.15,2013-08-03 01:05:00,
2013-08-02 18:10:00,64.7,53.9,29.89,SSE,163,4.0,5.0,68,0.00,,,0.00,Wunderground v.1.15,2013-08-03 01:10:00,
2013-08-02 18:20:00,64.3,53.9,29.89,SSE,148,5.0,8.0,69,0.00,,,0.00,Wunderground v.1.15,2013-08-03 01:20:00,
2013-08-02 18:25:00,64.1,53.7,29.89,SE,133,5.0,8.0,69,0.00,,,0.00,Wunderground v.1.15,2013-08-03 01:25:00,
2013-08-02 18:30:00,63.9,53.9,29.89,SE,143,4.0,6.0,70,0.00,,,0.00,Wunderground v.1.15,2013-08-03 01:30:00,
2013-08-02 18:35:00,63.9,53.9,29.88,SSE,148,4.0,6.0,70,0.00,,,0.00,Wunderground v.1.15,2013-08-03 01:35:00,
2013-08-02 18:40:00,63.7,53.7,29.88,SE,138,4.0,4.0,70,0.00,,,0.00,Wunderground v.1.15,2013-08-03 01:40:00,
2013-08-02 18:50:00,62.9,53.4,29.88,SSE,147,5.0,6.0,71,0.00,,,0.00,Wunderground v.1.15,2013-08-03 01:50:00,
2013-08-02 18:55:00,62.3,53.5,29.88,SE,146,5.0,6.0,73,0.00,,,0.00,Wunderground v.1.15,2013-08-03 01:55:00,
2013-08-02 19:00:00,62.0,53.2,29.88,SSE,159,5.0,5.0,73,0.00,,,0.00,Wunderground v.1.15,2013-08-03 02:00:00,
2013-08-02 19:05:00,61.8,53.1,29.88,SSE,163,4.0,5.0,73,0.00,,,0.00,Wunderground v.1.15,2013-08-03 02:05:00,
2013-08-02 19:15:00,61.3,52.9,29.88,SSE,150,4.0,4.0,74,0.00,,,0.00,Wunderground v.1.15,2013-08-03 02:15:00,
2013-08-02 19:20:00,61.2,52.8,29.88,SSE,163,4.0,7.0,74,0.00,,,0.00,Wunderground v.1.15,2013-08-03 02:20:00,
2013-08-02 19:25:00,60.8,52.8,29.88,SSE,159,4.0,7.0,75,0.00,,,0.00,Wunderground v.1.15,2013-08-03 02:25:00,
2013-08-02 19:30:00,60.5,52.9,29.88,SSE,158,4.0,4.0,76,0.00,,,0.00,Wunderground v.1.15,2013-08-03 02:30:00,
2013-08-02 19:35:00,60.1,52.9,29.88,SE,144,3.0,4.0,77,0.00,,,0.00,Wunderground v.1.15,2013-08-03 02:35:00,
2013-08-02 19:44:00,58.9,52.4,29.88,SE,133,3.0,3.0,79,0.00,,,0.00,Wunderground v.1.15,2013-08-03 02:44:00,
2013-08-02 19:50:00,58.5,52.4,29.89,SE,146,2.0,2.0,80,0.00,,,0.00,Wunderground v.1.15,2013-08-03 02:50:00,
2013-08-02 19:55:00,58.0,52.2,29.88,SSE,147,1.0,2.0,81,0.00,,,0.00,Wunderground v.1.15,2013-08-03 02:55:00,
2013-08-02 20:00:00,57.6,52.1,29.89,SSE,154,2.0,3.0,82,0.00,,,0.00,Wunderground v.1.15,2013-08-03 03:00:00,
2013-08-02 20:05:00,57.2,51.8,29.89,SSE,154,2.0,3.0,82,0.00,,,0.00,Wunderground v.1.15,2013-08-03 03:05:00,
2013-08-02 20:10:00,56.8,51.7,29.89,SSE,153,1.0,2.0,83,0.00,,,0.00,Wunderground v.1.15,2013-08-03 03:10:00,
2013-08-02 20:19:00,56.0,51.6,29.89,SSE,152,1.0,1.0,85,0.00,,,0.00,Wunderground v.1.15,2013-08-03 03:19:00,
2013-08-02 20:25:00,55.6,51.5,29.89,SSE,152,0.0,1.0,86,0.00,,,0.00,Wunderground v.1.15,2013-08-03 03:25:00,
2013-08-02 20:30:00,55.3,51.2,29.90,SSE,154,1.0,1.0,86,0.00,,,0.00,Wunderground v.1.15,2013-08-03 03:30:00,
2013-08-02 20:35:00,55.0,51.2,29.90,SSE,153,1.0,1.0,87,0.00,,,0.00,Wunderground v.1.15,2013-08-03 03:35:00,
2013-08-02 20:40:00,54.6,50.8,29.90,SSE,153,1.0,1.0,87,0.00,,,0.00,Wunderground v.1.15,2013-08-03 03:40:00,
2013-08-02 20:50:00,54.2,50.7,29.90,SSE,153,0.0,0.0,88,0.00,,,0.00,Wunderground v.1.15,2013-08-03 03:50:00,
2013-08-02 20:55:00,54.0,50.8,29.90,SSE,153,0.0,0.0,89,0.00,,,0.00,Wunderground v.1.15,2013-08-03 03:55:00,
2013-08-02 21:00:00,53.8,50.6,29.90,SSE,153,1.0,1.0,89,0.00,,,0.00,Wunderground v.1.15,2013-08-03 04:00:00,
2013-08-02 21:05:00,53.5,50.6,29.90,SSE,153,1.0,1.0,90,0.00,,,0.00,Wunderground v.1.15,2013-08-03 04:05:00,
2013-08-02 21:10:00,53.4,50.5,29.90,SSE,153,1.0,1.0,90,0.00,,,0.00,Wunderground v.1.15,2013-08-03 04:10:00,
2013-08-02 21:15:00,53.2,50.6,29.91,SSE,153,0.0,1.0,91,0.00,,,0.00,Wunderground v.1.15,2013-08-03 04:15:00,
2013-08-02 21:20:00,53.1,50.5,29.91,SSE,152,0.0,0.0,91,0.00,,,0.00,Wunderground v.1.15,2013-08-03 04:20:00,
2013-08-02 21:25:00,53.0,50.4,29.91,SSE,152,1.0,1.0,91,0.00,,,0.00,Wunderground v.1.15,2013-08-03 04:25:00,
2013-08-02 21:30:00,52.9,50.6,29.91,SSE,152,0.0,0.0,92,0.00,,,0.00,Wunderground v.1.15,2013-08-03 04:30:00,
2013-08-02 21:35:00,52.8,50.5,29.91,SSE,152,0.0,0.0,92,0.00,,,0.00,Wunderground v.1.15,2013-08-03 04:35:00,
2013-08-02 21:40:00,52.7,50.4,29.91,SSE,152,0.0,0.0,92,0.00,,,0.00,Wunderground v.1.15,2013-08-03 04:40:00,
2013-08-02 21:50:00,52.6,50.3,29.91,SSE,152,0.0,0.0,92,0.00,,,0.00,Wunderground v.1.15,2013-08-03 04:50:00,
2013-08-02 21:55:00,52.5,50.2,29.91,SSE,152,0.0,0.0,92,0.00,,,0.00,Wunderground v.1.15,2013-08-03 04:55:00,
2013-08-02 22:00:00,52.3,50.0,29.91,SSE,152,0.0,0.0,92,0.00,,,0.00,Wunderground v.1.15,2013-08-03 05:00:00,
2013-08-02 22:05:00,52.2,49.9,29.91,SSE,152,0.0,0.0,92,0.00,,,0.00,Wunderground v.1.15,2013-08-03 05:05:00,
2013-08-02 22:10:00,52.0,50.0,29.91,SSE,152,0.0,0.0,93,0.00,,,0.00,Wunderground v.1.15,2013-08-03 05:10:00,
2013-08-02 22:15:00,52.0,50.0,29.91,SSE,152,0.0,0.0,93,0.00,,,0.00,Wunderground v.1.15,2013-08-03 05:15:00,
2013-08-02 22:25:00,52.0,50.3,29.91,SSE,152,0.0,0.0,94,0.00,,,0.00,Wunderground v.1.15,2013-08-03 05:25:00,
2013-08-02 22:30:00,51.9,49.9,29.92,SSE,152,0.0,0.0,93,0.00,,,0.00,Wunderground v.1.15,2013-08-03 05:30:00,
2013-08-02 22:35:00,51.7,49.7,29.92,SSE,152,0.0,0.0,93,0.00,,,0.00,Wunderground v.1.15,2013-08-03 05:35:00,
2013-08-02 22:40:00,51.5,49.5,29.92,SSE,152,0.0,0.0,93,0.00,,,0.00,Wunderground v.1.15,2013-08-03 05:40:00,
2013-08-02 22:45:00,51.5,49.8,29.91,SSE,152,0.0,0.0,94,0.00,,,0.00,Wunderground v.1.15,2013-08-03 05:45:00,
2013-08-02 22:55:00,51.3,49.6,29.92,SSE,152,0.0,0.0,94,0.00,,,0.00,Wunderground v.1.15,2013-08-03 05:55:00,
2013-08-02 23:00:00,51.3,49.6,29.92,SSE,152,0.0,0.0,94,0.00,,,0.00,Wunderground v.1.15,2013-08-03 06:00:00,
2013-08-02 23:05:00,51.3,49.6,29.92,SSE,152,0.0,0.0,94,0.00,,,0.00,Wunderground v.1.15,2013-08-03 06:05:00,
2013-08-02 23:10:00,51.2,49.5,29.92,SSE,152,0.0,0.0,94,0.00,,,0.00,Wunderground v.1.15,2013-08-03 06:10:00,
2013-08-02 23:20:00,50.9,49.2,29.92,SSE,152,0.0,0.0,94,0.00,,,0.00,Wunderground v.1.15,2013-08-03 06:20:00,
2013-08-02 23:24:00,50.7,49.0,29.92,SSE,152,0.0,0.0,94,0.00,,,0.00,Wunderground v.1.15,2013-08-03 06:24:00,
2013-08-02 23:30:00,50.6,48.9,29.92,SSE,152,0.0,0.0,94,0.00,,,0.00,Wunderground v.1.15,2013-08-03 06:30:00,
2013-08-02 23:35:00,50.4,48.7,29.92,SSE,152,0.0,0.0,94,0.00,,,0.00,Wunderground v.1.15,2013-08-03 06:35:00,
2013-08-02 23:40:00,50.0,48.1,29.91,SSE,152,0.0,0.0,93,0.00,,,0.00,Wunderground v.1.15,2013-08-03 06:40:00,
2013-08-02 23:50:00,49.6,48.2,29.91,SSE,152,0.0,0.0,95,0.00,,,0.00,Wunderground v.1.15,2013-08-03 06:50:00,
2013-08-02 23:55:00,49.9,48.8,29.91,SSE,152,0.0,0.0,96,0.00,,,0.00,Wunderground v.1.15,2013-08-03 06:55:00,
2013-08-02 23:59:00,50.1,49.0,29.92,SSE,152,0.0,0.0,96,0.00,,,0.00,Wunderground v.1.15,2013-08-03 06:59:00,